Chipley, FL

9:44 PM CDT on June 27, 2017 (GMT -0500)
Chipley

Weather History for KVSH - February, 2014

Change the Weather History Date:

Monday, February 10, 2014

  Actual Average (KDHN) Record (KDHN)
Temperature  
Mean Temperature - -  
Max Temperature - 62 °F 83 °F (1939)
Min Temperature - 42 °F 20 °F (1947)
Moisture  
Dew Point -    
Average Humidity    
Maximum Humidity    
Minimum Humidity    
Precipitation  
Precipitation 0.09 in - - ()
Sea Level Pressure  
Sea Level Pressure 30.08 in    
Wind  
Wind Speed 4 mph (East)    
Max Wind Speed 10 mph    
Max Gust Speed 17 mph    
Visibility 7 miles    
Events      
Averages and records for this station are not official NWS values.
T = Trace of Precipitation, MM = Missing Value Source: NWS Daily Summary

Daily Weather History Graph

Daily Weather History Graph

Search for Another Location

Airport or City:

Trip Planner

Search our weather history database for the weather conditions in past years. The results will help you decide how hot, cold, wet, or windy it might be!

Date:

Astronomy

Feb. 10, 2014 Rise Set
Actual Time 6:27 AM CST 5:26 PM CST
Civil Twilight 6:02 AM CST 5:51 PM CST
Nautical Twilight 5:34 AM CST 6:19 PM CST
Astronomical Twilight 5:05 AM CST 6:47 PM CST
Moon 2:01 PM CST (2/10) 3:13 AM CST (2/10)
Length of Visible Light 11h 48m
Length of Day
10h 58m
Waxing Gibbous, 85% of the Moon is Illuminated
Feb 10
Waxing Gibbous
Feb 14
Full
Feb 22
Last Quarter
Mar 1
New
Mar 8
First Quarter

Hourly Weather History & Observations

Time (CST) Temp. Dew Point Humidity Pressure Visibility Wind Dir Wind Speed Gust Speed Precip Events Conditions
12:15 AM - - N/A% 30.09 in 7.0 mi Calm Calm - N/A   Mostly Cloudy
12:35 AM - - N/A% 30.09 in 4.0 mi Calm Calm - N/A   Overcast
12:55 AM - - N/A% 30.09 in 1.5 mi SSW 3.5 mph - N/A   Overcast
1:15 AM - - N/A% 30.09 in 0.5 mi Calm Calm - N/A   Overcast
1:35 AM - - N/A% 30.09 in 0.5 mi Calm Calm - N/A   Overcast
1:55 AM - - N/A% 30.09 in 0.5 mi Calm Calm - N/A   Overcast
2:15 AM - - N/A% 30.08 in 0.8 mi Calm Calm - N/A   Overcast
2:35 AM - - N/A% 30.08 in 1.0 mi Calm Calm - N/A   Overcast
2:55 AM - - N/A% 30.08 in 5.0 mi South 3.5 mph - N/A   Overcast
3:15 AM - - N/A% 30.07 in 1.5 mi SSE 5.8 mph - N/A   Overcast
3:35 AM - - N/A% 30.07 in 7.0 mi SSE 5.8 mph - N/A   Overcast
3:55 AM - - N/A% 30.06 in 7.0 mi SSE 6.9 mph - N/A   Overcast
4:15 AM - - N/A% 30.06 in 3.0 mi SSE 5.8 mph - N/A   Overcast
4:35 AM - - N/A% 30.06 in 1.0 mi SSE 5.8 mph - N/A   Overcast
4:55 AM - - N/A% 30.07 in 2.0 mi South 4.6 mph - N/A   Overcast
5:15 AM - - N/A% 30.07 in 5.0 mi South 4.6 mph - N/A   Overcast
5:35 AM - - N/A% 30.07 in 4.0 mi SSE 5.8 mph - N/A   Overcast
5:55 AM - - N/A% 30.07 in 6.0 mi South 4.6 mph - N/A   Scattered Clouds
6:15 AM - - N/A% 30.08 in 5.0 mi South 3.5 mph - N/A   Mostly Cloudy
6:35 AM - - N/A% 30.09 in 3.0 mi Calm Calm - N/A   Overcast
6:55 AM - - N/A% 30.09 in 4.0 mi SSE 4.6 mph - N/A   Overcast
7:15 AM - - N/A% 30.09 in 6.0 mi SSE 5.8 mph - N/A   Overcast
7:35 AM - - N/A% 30.10 in 8.0 mi SSE 5.8 mph - N/A   Mostly Cloudy
7:55 AM - - N/A% 30.10 in 7.0 mi South 5.8 mph - N/A   Scattered Clouds
8:15 AM - - N/A% 30.10 in 8.0 mi South 4.6 mph - N/A   Clear
8:35 AM - - N/A% 30.11 in 10.0 mi Calm Calm - N/A   Clear
8:55 AM - - N/A% 30.13 in 10.0 mi Calm Calm - N/A   Mostly Cloudy
9:15 AM - - N/A% 30.12 in 10.0 mi South 4.6 mph - N/A   Mostly Cloudy
9:35 AM - - N/A% 30.12 in 10.0 mi South 6.9 mph - N/A   Clear
9:55 AM - - N/A% 30.12 in 10.0 mi South 6.9 mph - N/A   Scattered Clouds
10:15 AM - - N/A% 30.12 in 10.0 mi South 8.1 mph - N/A   Mostly Cloudy
10:35 AM - - N/A% 30.11 in 10.0 mi South 10.4 mph 17.3 mph N/A   Scattered Clouds
10:55 AM - - N/A% 30.10 in 10.0 mi South 6.9 mph 16.1 mph N/A   Clear
11:15 AM - - N/A% 30.10 in 10.0 mi SW 6.9 mph 16.1 mph N/A   Scattered Clouds
11:35 AM - - N/A% 30.10 in 10.0 mi SSW 6.9 mph - N/A   Overcast
11:55 AM - - N/A% 30.09 in 10.0 mi SSW 6.9 mph - N/A   Overcast
12:15 PM - - N/A% 30.08 in 10.0 mi South 6.9 mph - N/A   Overcast
12:35 PM - - N/A% 30.07 in 10.0 mi South 5.8 mph - N/A   Overcast
12:55 PM - - N/A% 30.07 in 10.0 mi SW 4.6 mph - N/A   Overcast
1:15 PM - - N/A% 30.06 in 10.0 mi Calm Calm - N/A   Overcast
1:35 PM - - N/A% 30.06 in 4.0 mi Calm Calm - 0.04 in   Overcast
1:55 PM - - N/A% 30.05 in 5.0 mi NNE 3.5 mph - 0.08 in   Overcast
2:15 PM - - N/A% 30.04 in 10.0 mi Calm Calm - N/A   Overcast
2:35 PM - - N/A% 30.04 in 8.0 mi NNW 4.6 mph - N/A   Overcast
2:55 PM - - N/A% 30.04 in 6.0 mi WNW 4.6 mph - N/A   Overcast
3:15 PM - - N/A% 30.04 in 3.0 mi NW 4.6 mph - N/A   Overcast
3:35 PM - - N/A% 30.04 in 4.0 mi NNW 4.6 mph - N/A   Overcast
3:55 PM - - N/A% 30.04 in 5.0 mi North 5.8 mph - 0.01 in   Overcast
4:15 PM - - N/A% 30.04 in 5.0 mi North 3.5 mph - N/A   Overcast
4:35 PM - - N/A% 30.05 in 4.0 mi North 3.5 mph - N/A   Overcast
4:55 PM - - N/A% 30.04 in 7.0 mi NNE 4.6 mph - N/A   Overcast
5:15 PM - - N/A% 30.05 in 9.0 mi NNW 5.8 mph - N/A   Overcast
5:35 PM - - N/A% 30.05 in 10.0 mi North 6.9 mph - N/A   Overcast
5:55 PM - - N/A% 30.06 in 10.0 mi North 6.9 mph - N/A   Overcast
6:15 PM - - N/A% 30.06 in 10.0 mi NE 8.1 mph - N/A   Overcast
6:35 PM - - N/A% 30.06 in 10.0 mi NNE 6.9 mph - N/A   Overcast
6:55 PM - - N/A% 30.07 in 10.0 mi North 6.9 mph - N/A   Overcast
7:15 PM - - N/A% 30.07 in 10.0 mi North 8.1 mph - N/A   Overcast
7:35 PM - - N/A% 30.08 in 10.0 mi North 6.9 mph - N/A   Overcast
7:55 PM - - N/A% 30.08 in 10.0 mi NNE 8.1 mph - N/A   Overcast
8:15 PM - - N/A% 30.08 in 10.0 mi NNE 8.1 mph - N/A   Overcast
8:35 PM - - N/A% 30.07 in 10.0 mi NNE 6.9 mph - N/A   Overcast
8:55 PM - - N/A% 30.08 in 10.0 mi North 5.8 mph - N/A   Overcast
9:15 PM - - N/A% 30.07 in 10.0 mi NNE 6.9 mph - N/A   Overcast
9:35 PM - - N/A% 30.08 in 10.0 mi North 4.6 mph - N/A   Overcast
9:55 PM - - N/A% 30.07 in 10.0 mi North 4.6 mph - N/A   Overcast
10:15 PM - - N/A% 30.07 in 10.0 mi North 5.8 mph - N/A   Overcast
10:35 PM - - N/A% 30.08 in 10.0 mi North 6.9 mph - N/A   Overcast
10:55 PM - - N/A% 30.07 in 10.0 mi North 6.9 mph - N/A   Overcast
11:15 PM - - N/A% 30.06 in 10.0 mi NE 5.8 mph - N/A   Overcast
11:35 PM - - N/A% 30.05 in 10.0 mi NE 6.9 mph - N/A   Overcast
11:55 PM - - N/A% 30.05 in 10.0 mi NNE 3.5 mph - N/A   Overcast